Regional Weather Roundup
Issued by NWS Upton, NY

Home | Current Version | Previous Version | Text Only | Print | Product List | Glossary On
Versions: 1 2 3 4 5 6 7 8 9 10 11 12 13 14 15 16 17 18 19 20 21 22 23 24 25 26 27
000
ASUS41 KOKX 311605
RWROKX

REGIONAL WEATHER ROUNDUP
NATIONAL WEATHER SERVICE NEW YORK NY
1200 PM EDT FRI OCT 31 2014

NOTE: "FAIR" INDICATES FEW OR NO CLOUDS BELOW 12,000 FEET WITH NO
SIGNIFICANT WEATHER AND/OR OBSTRUCTIONS TO VISIBILITY.

NYZ071-072-176-178-NJZ106-104-311700-
NEW YORK CITY METRO AREA


CITY           SKY/WX    TMP DP  RH WIND       PRES   REMARKS
CENTRAL PARK   CLOUDY    52  34  50 VRB6      30.00F
LAGUARDIA APRT CLOUDY    52  39  61 NE12      29.97F
KENNEDY INTL   CLOUDY    54  38  54 NE7       29.98F
NEWARK/LIBERTY CLOUDY    51  36  56 N9        29.98F
BRNX BOT. GARD   N/A     52  36  54 N5        29.99F
TETERBORO      CLOUDY    53  36  52 VRB5      29.97F
$$

NYZ177-179-078>081-311700-
LONG ISLAND NEW YORK

CITY           SKY/WX    TMP DP  RH WIND       PRES   REMARKS
FARMINGDALE    CLOUDY    54  40  59 NE9       29.97F
ISLIP          CLOUDY    55  42  61 NE8       29.95F
SHIRLEY        PTSUNNY   55  43  63 CALM      29.98F
WESTHAMPTON    CLOUDY    56  46  69 NE8       29.98F
MONTAUK POINT    N/A     55  47  74 NE8G21    29.98F
$$

NYZ052-065-067-311700-
HUDSON VALLEY

CITY           SKY/WX    TMP DP  RH WIND       PRES   REMARKS
WHITE PLAINS   CLOUDY    50  35  56 E5        29.97F
NEWBURGH       PTSUNNY   48  37  66 VRB6      30.00F
MONTGOMERY     PTSUNNY   47  36  65 VRB3      29.99F
POUGHKEEPSIE   PTSUNNY   48  37  65 N3        30.00F
ALBANY         MOSUNNY   49  34  56 NE5       30.02F
$$

NJZ001-105-106-008-010-013-015-019>022-104-311700-
NEW JERSEY

CITY           SKY/WX    TMP DP  RH WIND       PRES   REMARKS
NEWARK/LIBERTY CLOUDY    51  36  56 N9        29.98F
TETERBORO      CLOUDY    53  36  52 VRB5      29.97F
CALDWELL       CLOUDY    49  35  58 CALM      29.98F
MORRISTOWN     CLOUDY    50  36  57 NE8       29.99F
SOMERVILLE     CLOUDY    50  35  56 CALM      29.97F
SUSSEX         CLOUDY    48  36  63 NE9       29.99F
ANDOVER          N/A     47  35  63 NE6       29.99F
TRENTON        CLOUDY    49  35  58 N6        29.97F
MILLVILLE      CLOUDY    51  39  63 N12       29.94F
ATLANTIC CITY  CLOUDY    52  42  69 N9        29.94F
WRIGHTSTOWN    CLOUDY    48  38  69 N7        29.94F
TOMS RIVER     CLOUDY    52  39  62 N8        29.95F
BELMAR         CLOUDY    52  36  54 NE8       29.96S
$$

PAZ047>061-062-071-311700-
EASTERN PENNSYLVANIA

CITY           SKY/WX    TMP DP  RH WIND       PRES   REMARKS
PHILADELPHIA   CLOUDY    50  36  58 N7        29.98F
ALLENTOWN      PTSUNNY   49  36  61 E7        30.00S
SCRANTON       SUNNY     49  33  54 NE7       29.97F
$$

CTZ002-004>006-009-010-012-RIZ004-006-007-MAZ004-011-015-311700-
SOUTHERN NEW ENGLAND
 IN CT

CITY           SKY/WX    TMP DP  RH WIND       PRES   REMARKS
BRADLEY INTL   PTSUNNY   50  37  61 VRB3      30.00F
HARTFORD       PTSUNNY   50  39  66 VRB5      30.00F
DANBURY        PTSUNNY   50  34  54 NE3       29.99F
WTRBRY/OXFORD  CLOUDY    48  36  61 E5        29.99F
BRIDGEPORT     PTSUNNY   53  41  63 NE9       29.98F
MERIDEN        PTSUNNY   50  38  63 N5        29.99F
NEW HAVEN      PTSUNNY   55  41  59 N6        29.98F
CHESTER        FAIR      52  39  62 NE5       29.98F
GROTON         CLOUDY    52  43  71 NE9       29.98F
WILLIMANTIC    MOSUNNY   53  38  56 E8        29.99F

 IN RI

CITY           SKY/WX    TMP DP  RH WIND       PRES   REMARKS
PROVIDENCE     PTSUNNY   54  41  61 NE10      30.01F
BLOCK ISLAND   CLOUDY    54  45  71 NE12G18   29.97F
WESTERLY       CLOUDY    53  43  68 NE7       29.99F

 IN MA

CITY           SKY/WX    TMP DP  RH WIND       PRES   REMARKS
BOSTON         PTSUNNY   52  38  58 E12       30.03F
WORCESTER      CLOUDY    46  35  65 E7        30.00F
WESTFIELD      CLOUDY    49  36  61 N3        30.01F
PROVINCETOWN   CLOUDY    54   0  11 NE12G18   30.02F
NANTUCKET      PTSUNNY   58  44  60 E14       29.98F
$$

ANZ330-335-338-340-345-350-353-355-311700-
COASTAL MARINE OBSERVATIONS


STATION/POSITION TIME  SKY/WX   TEMP    WIND        PRES    VSBY  WAVE
                                AIR SEA DIR/SP/G                  HT/PER
                 (UTC)          (F)     (DEG/KT/KT) (MB)    (MI)  (FT/S)
NY HARB ENTRANCE 1600            53 60   50/ 14/ 17 1014.6          2/ 4
4S FIRE IS       1600               62                N/A           2/ 4
20S FIRE ISLAND  1600            55 62   60/ 12/ 14 1014.0          2/ 4
23SW MTP         1600                                 N/A           1/ 7
HUDSON CANYON    1600            57 64   60/ 14/ 16 1013.0          2/ 5
EXECUTION ROCKS  1600            52 60   60/ 12/ 16   N/A
WESTERN LI SOUND 1600            51      60/ 10/ 14   N/A           1/ 4
CENTRAL LI SOUND 1500            50 61   60/ 10/ 12   N/A           1/ 4
EASTERN LI SOUND 1500            53 61   50/ 10/ 12   N/A
ROBBINS REEF     1600            50      40/  6/  8 1013.8
$$


>>>>>>>>>>>>>>>>>>>>>>>>>>>> KEY <<<<<<<<<<<<<<<<<<<<<<<<<<<
>                                                          <
>     SKY/WX - SKY CONDITION/PRESENT WEATHER               <
>     TMP    - TEMPERATURE IN FAHRENHEIT                   <
>     DP     - DEWPOINT IN FAHRENHEIT                      <
>     RH     - RELATIVE HUMIDITY IN PERCENT                <
>     WIND   - DIRECTION AND SPEED IN MPH                  <
>     PRES   - MEAN SEA LEVEL PRESSURE IN INCHES OF HG     <
>     WCI    - WIND CHILL INDEX                            <
>     VSB    - VISIBILITY IN MILES                         <
>     HX     - HEAT INDEX                                  <
>     TC     - TEMPERATURE IN CELSIUS                      <
>     VRB    - VARIABLE WIND DIRECTION                     <
>                                                          <
>>>>>>>>>>>>>>>>>>>>>>>>>>>> KEY <<<<<<<<<<<<<<<<<<<<<<<<<<<





USA.gov is the U.S. government's official web portal to all federal, state and local government web resources and services.